Creek Data

    Home     View Charts     View Raw Data     Messages

ID Distance Battery Voltage Battery Current Internal Temp Internal Humidity External Temp Solar Input rssi snr Time Stamp Record
34641 15.4 4.00 -5 45 40 46 0 -75 8 03/11/2025 01:30 AM 16379
34640 15.4 3.94 -5 47 40 47 0 -76 9 03/11/2025 01:15 AM 16378
34639 15.4 4.00 -5 49 39 51 0 -76 8 03/11/2025 01:00 AM 16377
34638 15.4 3.94 -5 50 39 51 0 -75 8 03/11/2025 12:45 AM 16376
34637 15.4 4.00 -5 51 39 52 0 -75 8 03/11/2025 12:30 AM 16375
34636 15.4 3.94 -5 51 39 53 0 -75 8 03/11/2025 12:15 AM 16374
34635 15.3 4.00 -5 51 39 53 0 -74 8 03/11/2025 12:00 AM 16373
34634 15.4 3.95 -13 52 39 53 0.1 -76 8 03/10/2025 11:45 PM 16372
34633 15.4 3.95 -5 52 39 54 0 -75 8 03/10/2025 11:30 PM 16371
34632 15.4 4.00 -5 52 39 54 0 -75 8 03/10/2025 11:15 PM 16370
34631 15.3 3.95 -5 53 39 54 0.1 -74 8 03/10/2025 10:45 PM 16368
34630 15.4 4.01 -5 53 39 54 0 -74 8 03/10/2025 10:30 PM 16367
34629 15.4 3.95 -5 53 39 54 0 -74 7 03/10/2025 10:15 PM 16366
34628 15.4 3.95 -5 53 39 55 0 -74 8 03/10/2025 10:00 PM 16365
34627 15.4 4.01 -5 54 39 55 0.1 -73 8 03/10/2025 09:45 PM 16364
34626 15.4 3.95 -5 54 39 55 0 -74 8 03/10/2025 09:30 PM 16363
34625 15.5 3.95 -5 54 39 55 0 -73 8 03/10/2025 09:15 PM 16362
34624 15.3 4.01 -5 55 39 56 0 -74 8 03/10/2025 09:00 PM 16361
34623 15.5 4.01 -10 55 39 57 0 -73 8 03/10/2025 08:45 PM 16360
34622 15.4 3.96 -5 54 40 57 0 -75 8 03/10/2025 08:30 PM 16359
34621 0.0 4.01 -5 53 41 54 0 -75 8 03/10/2025 08:15 PM 16358
34620 15.5 3.96 -5 54 42 54 0 -77 9 03/10/2025 08:00 PM 16357
34619 0.0 3.96 -5 55 42 56 0.1 -77 8 03/10/2025 07:46 PM 16356
34618 0.0 3.96 -5 56 43 57 0.1 -77 8 03/10/2025 07:30 PM 16355
34617 0.0 3.96 -9 59 43 57 1.7 -76 8 03/10/2025 07:15 PM 16354